Showing default

COSMOS 2589, 64467

Orbit data source: Space-Track

COSMOS 2589, 64467 is a payload satellite owned by Resehetnev ISS (CIS) in GEO that was launched on Thu, 19 Jun 2025 UTC via an ANGARA A5 launch vehicle from the Plesetsk Missile And Space Complex (PKMTR). Payload-class satellites include a variety of spacecraft equipped with specific instruments for various scientific and technological missions. These include communications satellites like Starlink; space stations such as the ISS; scientific satellites like the Hubble; Earth observation satellites from companies like Planet Labs, Umbra, and HawkEye 360; GPS; miniature CubeSats for education and research; and military/defense satellites.

Not visible in the next 10 days
Identifier
64467, 2025-131A
Orbit
GEO
Country
Flag of CISCIS
Related business
Manufacturer
RESH/TSKHM
Mission
Operational Defense Technology
Bus & Motor
14F166, Unknown motor
Mass
~3,200 kg wet, 2,700 kg dry
Launch date (UTC)
2025-06-19 (10 months ago)
Launch vehicle
ANGARA A5
Launch site
Plesetsk Missile And Space Complex (PKMTR)
Object type
Payload
Rocket body
Debris
Shape & HBR
Flared Cyl, 2.0 m
Radar Cross Section
7.854 m², Large (>1 m²)

Expand to show TLE details & history
Last TLE update: 17 hours ago

TLE from 17 hours ago
0 COSMOS 2589
1 64467U 25131A   26100.73500602 -.00000346  00000-0  00000+0 0  9994
2 64467   0.1278   1.9786 0299651 109.9576  90.0378  1.00422284  2885
Epoch: 2026-04-10T17:38Z
TLE epoch observation values (Epoch: 2026-04-10T17:38:24.520Z)
Latitude
-0.05387°
Longitude
101.82776°
Altitude
35,781.56 km
Speed
3.074 km/s
True Right ascension
13h 41m 34s
True Declination
0° 03' 14"
Sunlit
Object was in daylight at epoch
Visualization orbit readout
Latitude
Unknown
Longitude
Unknown
Altitude
Unknown
Speed
Unknown
Apparent Right ascension
Unknown
Apparent Declination
Unknown
Sunlit
N/A
Visualization observer readout
Local Sidereal Time
17:24:22
Azimuth
Unknown
Elevation
Unknown
Doppler factor
Unknown
Orbital elements
Apogee altitude
37,007.77 km
Perigee altitude
34,483.29 km
Semi-major axis
42,123.667 km
Eccentricity
0.02997
Inclination
0.1278°
RAAN
1.9786°
Arg. of periapsis
109.9576°
True anomaly
93.46941°
Mean anomaly
90.0378°
Eccentric anomaly
91.75387°
Mean motion
0.25105 °/min
Orbital period
1,434 mins
BSTAR
0
Loading maneuver chart data...
Computing Atmospheric mass density...
Loading historical data...
Loading historical data...
Loading historical data...
Loading historical data...
Loading historical data...
Loading historical data...
Loading historical data...
Other satellites on launch #131 in the year 2025 (2025-06-19 UTC)

Documentation

Showing up to 5 results
|